Location: Casteau
(50.5142°N, 4.0161°E)
Time: 09:29:27
(UTC+00:00)

SJ 16-02 - Pass Details

Date: 18 September 2020
Orbit: 606 x 616 km, 75.0° (Epoch: 28 October)

Event Time Altitude Azimuth Distance (km) Brightness Sun altitude
Rises 19:37:43 0° 245° (WSW) 2,860 5.4 -17.3°
Reaches altitude 10° 19:40:30 10° 263° (W) 1,960 4.8 -17.7°
Maximum altitude 19:43:39 19° 309° (NW) 1,458 4.2 -18.2°
Drops below altitude 10° 19:46:50 10° 356° (N) 1,968 4.3 -18.6°
Sets 19:49:38 0° 14° (NNE) 2,877 5.0 -19.0°
